FALCON HEAVY R/B

基本信息
目录编号:
60134
目录名称:
FALCON HEAVY R/B
国际标识:
2024-119B
轨道中心:
EARTH
物体状态:
在轨
发射日期:
2024-06-25 UTC
国别:
美国 (US)
轨道信息
数据来源: 国际轨道数据
星历时间: 2026-07-13T19:15:29+0800
半长轴: 31992.64km
偏心率: 0.2950998
轨道倾角: 5.940°
近地点辐角: 241.801°
升交点赤经: 65.962°
平近点角: 85.221°
近地点: 16173.481km
远地点: 35055.525km
周期: 949.150分钟
每日圈数: 1.517147
详细信息
发射场:
AFETR
轨道高度:
MEO
数据来源:
AOE Integration Group
参考系:
TEME
时间系统:
UTC
历元类型:
SGP4
2D轨道图
3D轨道图
轨道高度分析图
轨道倾角分析图
轨道综合分析图
查看轨道综合分析图